Location: Eppenbrunn
(49.1158°N, 7.5601°E)
Time: 17:14:44
(UTC+00:00)

Cosmos 1570 Rocket - Pass Details

Date: 09 April 2020
Orbit: 763 x 788 km, 74.1° (Epoch: 25 May)

Event Time Altitude Azimuth Distance (km) Brightness Sun altitude
Rises 20:45:34 0° 336° (NNW) 3,293 8.5 -22.4°
Reaches altitude 10° 20:47:58 10° 335° (NNW) 2,358 7.5 -22.7°
Maximum altitude 20:53:21 83° 249° (WSW) 797 4.0 -23.3°
Enters shadow 20:54:30 56° 169° (S) 927 4.1 -23.4°
